Wind_Speed
6 7 6 7 7 8 7 7 8 8 8 8 8 8 8 8 8 7 7 7 7 6 6 5 5 4 4 5 4 4 3 4 5 4 4 4 4 5 5 4 5 5 4
5 6 6 7 7 8 8 7 7 8 8 8 8 8 8 8 8 7 7 7 6 6 6 5 5 4 4 4 4 4 3 3 5 4 4 4 4 4 4 3 4 4 4
6 6 7 7 7 7 8 7 7 7 7 7 7 8 7 7 7 6 6 6 6 6 5 5 5 4 3 4 3 3 3 3 5 5 4 4 3 4 3 3 3 3 3
7 7 6 7 7 8 8 7 7 7 6 7 6 6 6 6 6 6 6 5 5 5 5 5 5 4 3 3 3 3 2 2 4 5 4 3 3 3 4 3 3 3 4
6 6 6 6 7 8 8 7 7 6 6 6 5 6 5 5 5 5 6 5 5 5 5 5 4 3 3 3 4 3 2 3 4 5 5 4 4 4 4 4 4 4 5
7 7 7 7 7 7 7 6 6 6 5 5 5 5 6 5 4 4 4 4 5 5 5 4 4 3 3 4 4 3 2 2 3 4 4 4 4 4 4 4 5 5 6
8 7 7 7 7 7 7 6 6 5 5 5 5 5 5 4 4 4 3 3 3 5 5 5 4 4 4 4 3 3 2 2 2 3 3 2 3 3 3 4 5 6 7
9 8 8 8 7 6 7 6 6 6 5 5 4 4 4 4 3 3 3 3 3 4 5 5 4 4 4 4 4 3 3 2 2 1 1 2 3 3 3 4 5 6 6
8 8 8 8 8 7 7 7 7 7 6 5 5 4 4 4 3 3 3 3 3 3 4 5 4 4 4 4 4 3 3 2 2 2 1 1 2 3 3 4 5 6 6
8 8 8 8 8 7 7 8 8 7 7 6 5 5 4 4 3 3 2 2 2 3 4 4 4 5 5 4 4 3 3 3 3 2 2 2 2 2 3 4 5 5 6
8 8 7 6 7 7 7 7 7 7 6 6 5 5 4 4 4 3 2 2 2 2 2 3 3 4 3 3 4 3 3 2 2 3 2 2 2 2 3 3 5 5 6
8 7 7 6 6 7 7 7 7 6 6 5 5 5 4 4 3 3 3 2 2 2 1 2 2 2 2 3 4 3 2 3 3 3 2 3 3 3 3 3 4 5 5
8 7 6 6 6 6 6 6 6 6 6 5 5 5 4 3 3 3 3 2 2 2 2 2 2 2 2 2 3 3 3 3 4 4 3 4 4 4 4 4 4 5 5
8 8 7 8 7 7 6 6 5 5 5 5 4 4 3 2 2 1 1 1 1 2 2 1 2 2 2 3 2 3 4 3 4 4 4 5 5 5 5 5 5 5 5
9 9 9 9 9 8 6 5 5 4 4 4 4 3 2 2 1 0 0 1 2 2 2 1 2 2 2 3 4 4 5 4 5 5 5 5 6 6 6 6 6 6 6
9 9 9 9 8 7 7 6 5 4 4 4 3 3 2 1 1 1 1 1 2 2 2 2 3 3 3 4 4 5 5 5 6 6 6 6 6 6 5 5 6 7 7
8 9 9 9 9 8 7 7 7 6 5 4 3 2 2 1 1 1 0 0 1 2 2 2 3 4 5 5 6 5 5 6 6 7 7 7 7 7 6 7 7 7 8
8 9 9 9 9 9 8 8 7 7 6 6 5 4 3 2 1 1 0 0 1 2 3 3 4 5 6 6 7 7 6 7 7 7 7 8 8 8 8 8 8 8 9
8 9 9 9 9 8 8 8 7 7 7 7 6 5 4 4 2 2 1 1 2 3 4 4 5 6 6 6 7 7 7 8 8 8 8 8 9 9 9 9 9 9 10
8 8 8 9 9 9 8 8 8 8 7 6 6 6 5 5 3 3 3 2 2 3 4 4 5 6 6 6 6 7 8 8 9 9 8 9 10 10 10 11 10 11 11
7 8 8 8 8 8 8 8 8 7 7 7 6 6 6 5 4 4 4 3 3 3 4 5 6 6 6 6 7 8 8 9 9 9 10 11 11 11 12 13 13 13 12
7 7 7 7 8 8 8 8 8 7 7 7 7 7 6 6 6 5 6 4 4 4 5 5 6 6 5 6 7 8 8 9 9 10 11 11 11 12 13 13 13 14 13
6 6 7 7 7 7 7 7 7 7 7 7 7 7 7 7 6 6 6 5 5 5 6 6 6 5 6 6 6 7 7 8 9 10 11 12 13 13 13 13 13 13 14
6 5 5 6 6 7 7 7 7 7 8 8 8 8 8 7 7 8 8 7 6 6 6 6 6 7 7 8 8 8 8 9 10 10 10 11 13 13 14 14 14 14 14
6 6 5 5 6 7 7 7 7 8 8 8 9 9 9 8 8 9 9 8 7 6 6 7 7 7 8 8 9 9 10 11 12 12 12 12 13 13 14 14 15 15 15
6 6 6 5 6 6 7 7 7 8 9 9 9 10 10 10 10 10 10 9 9 8 8 8 7 8 8 9 10 10 11 12 13 14 14 14 14 14 14 15 15 15 15
Wind_Direction
84 88 96 104 110 110 106 107 112 117 121 127 129 128 129 127 131 135 140 141 138 140 141 139 144 151 163 168 171 172 184 195 206 209 210 215 206 205 208 221 217 217 225
91 91 98 104 115 118 114 109 109 115 121 124 125 129 130 130 131 133 137 143 145 144 144 144 144 152 162 166 175 179 187 194 212 216 214 212 206 205 207 207 199 205 214
90 95 99 105 111 116 117 117 115 112 114 117 120 127 131 135 136 138 141 144 148 151 152 149 151 160 167 170 172 179 185 191 212 219 216 217 220 212 208 204 211 213 221
90 94 100 104 110 117 121 121 121 118 117 119 121 130 137 140 143 145 154 155 156 157 162 167 162 169 173 170 179 186 181 183 203 210 210 211 195 194 205 211 226 231 237
87 95 101 104 113 120 120 121 121 122 122 125 126 133 140 146 151 156 162 164 163 166 171 178 171 173 178 172 180 193 199 186 185 211 213 197 199 207 213 223 234 236 243
85 88 96 100 110 119 121 122 124 122 124 126 123 131 138 142 156 163 164 167 173 179 185 178 179 188 195 182 181 196 179 164 187 209 193 191 209 215 220 233 240 242 248
82 86 87 102 110 120 124 123 122 124 127 128 123 125 133 139 146 155 154 171 188 194 188 188 189 200 207 200 192 204 178 165 191 214 204 210 221 226 226 238 242 242 248
83 85 86 97 102 114 124 126 125 124 125 127 125 127 134 144 155 169 166 178 188 194 196 200 198 204 208 207 199 192 178 181 207 234 193 208 223 228 233 240 241 246 254
87 85 88 91 91 98 111 122 120 117 117 121 122 125 130 135 146 163 179 192 202 196 198 202 198 203 206 204 200 189 187 202 216 222 229 236 239 240 247 247 245 248 256
88 85 86 90 95 99 105 111 112 111 112 114 116 120 122 123 131 147 163 183 202 208 205 193 196 211 192 195 196 196 196 205 227 242 260 282 271 251 245 243 248 256 261
83 79 81 90 95 97 103 107 111 115 116 117 117 119 121 118 120 125 136 158 175 186 207 207 194 202 201 199 195 194 198 217 243 258 274 295 286 255 237 245 244 255 260
78 76 79 85 94 95 96 99 107 108 110 114 120 115 114 116 118 120 127 139 164 175 178 205 205 189 190 199 202 203 217 245 254 264 273 291 295 282 266 263 261 267 270
76 74 78 83 90 94 96 96 96 100 99 99 109 109 105 116 127 133 139 146 164 176 178 196 218 207 197 209 214 223 237 258 267 265 275 280 285 282 267 263 267 273 277
76 76 78 84 94 96 96 95 96 97 97 98 103 104 106 110 128 135 140 165 199 180 190 227 235 199 198 206 216 235 247 267 266 271 272 276 277 280 272 265 269 279 282
76 78 81 85 89 92 92 90 91 94 87 91 100 93 87 74 52 7 272 224 209 204 208 245 251 232 207 213 234 247 254 261 264 271 274 274 279 279 280 272 266 275 281
76 78 80 82 83 83 85 88 91 91 87 79 86 86 80 62 40 0 340 208 213 213 219 246 252 242 234 239 249 259 259 257 262 271 270 271 272 276 284 282 278 274 276
75 76 79 79 79 79 85 88 85 77 77 75 77 72 67 47 24 1 333 206 196 211 239 250 252 251 247 247 248 260 265 265 276 282 271 270 269 274 279 282 279 279 279
76 77 79 75 74 74 80 83 80 76 72 71 67 65 57 51 52 47 360 270 238 244 255 256 258 261 258 257 253 256 264 269 275 280 274 271 272 275 280 281 281 282 280
78 79 76 69 67 68 72 75 73 73 72 71 64 58 54 46 43 38 3 289 262 255 258 259 257 265 266 262 257 262 268 272 272 278 278 277 276 277 278 280 284 283 281
77 76 72 68 66 66 66 68 69 70 66 64 59 53 46 44 40 16 340 306 278 265 263 265 265 269 270 268 269 271 275 276 275 277 280 280 278 281 281 281 284 284 284
77 74 70 69 68 65 65 66 65 60 54 52 51 48 38 30 22 1 347 315 294 283 276 270 277 282 275 276 277 274 275 277 278 278 280 283 282 280 281 278 280 284 283
74 70 66 66 62 59 58 54 51 45 42 45 46 35 25 19 13 360 350 334 300 288 286 286 285 285 281 280 281 278 277 276 279 277 280 281 281 282 280 280 284 284 284
67 63 59 57 54 51 47 42 37 36 37 38 32 22 15 12 11 0 348 334 309 293 287 295 292 286 288 288 284 290 292 291 287 283 281 282 284 285 284 280 279 283 282
45 49 48 47 47 42 38 34 29 29 25 20 19 15 9 4 359 351 347 339 322 306 295 297 299 292 291 291 286 290 291 290 290 288 287 285 285 285 285 283 282 280 281
33 33 32 35 31 26 23 24 19 16 14 14 12 10 8 2 354 349 347 342 330 317 307 302 296 296 295 295 291 290 293 291 290 289 286 288 290 291 289 288 284 280 279
24 24 23 21 16 17 17 14 11 8 9 8 6 4 4 1 354 350 346 340 331 321 313 309 304 298 298 298 296 295 296 293 289 286 286 289 293 295 293 292 287 286 286
Height
5887 5886 5885 5885 5885 5885 5885 5885 5886 5886 5887 5887 5887 5888 5889 5889 5890 5890 5890 5891 5892 5892 5892 5893 5893 5894 5894 5894 5895 5895 5895 5895 5895 5896 5896 5896 5896 5897 5897 5897 5898 5898 5899
5887 5886 5885 5885 5886 5886 5886 5887 5887 5887 5887 5888 5888 5889 5889 5890 5890 5891 5891 5891 5892 5892 5893 5893 5894 5894 5894 5895 5895 5895 5895 5895 5895 5896 5896 5896 5897 5897 5897 5897 5897 5898 5898
5887 5886 5886 5886 5886 5887 5887 5887 5888 5888 5888 5889 5889 5889 5890 5890 5891 5891 5892 5892 5892 5893 5893 5894 5894 5894 5895 5895 5895 5895 5895 5895 5895 5896 5896 5896 5896 5897 5897 5897 5897 5898 5898
5888 5887 5887 5887 5887 5887 5888 5888 5888 5889 5889 5889 5889 5890 5890 5890 5891 5892 5892 5892 5893 5893 5893 5894 5895 5895 5895 5895 5895 5895 5895 5895 5895 5895 5896 5896 5896 5897 5897 5897 5897 5897 5898
5889 5888 5887 5887 5887 5888 5888 5889 5889 5889 5889 5890 5890 5890 5890 5890 5891 5892 5892 5892 5893 5893 5893 5894 5894 5895 5895 5895 5895 5895 5895 5895 5894 5894 5895 5896 5896 5896 5897 5897 5897 5897 5898
5889 5889 5888 5888 5888 5888 5889 5889 5889 5890 5890 5890 5890 5890 5890 5891 5891 5892 5892 5892 5893 5893 5893 5894 5894 5895 5895 5895 5895 5895 5895 5895 5895 5894 5895 5895 5896 5896 5896 5896 5897 5897 5897
5890 5890 5890 5889 5889 5889 5889 5890 5890 5890 5890 5890 5891 5891 5891 5892 5892 5892 5892 5893 5893 5893 5893 5894 5895 5894 5894 5895 5895 5895 5895 5895 5895 5895 5895 5896 5896 5896 5896 5896 5896 5896 5896
5892 5891 5891 5890 5890 5890 5890 5890 5890 5890 5890 5891 5891 5891 5891 5892 5892 5892 5892 5893 5893 5893 5894 5894 5894 5894 5894 5894 5895 5895 5895 5895 5895 5895 5895 5895 5895 5895 5895 5895 5895 5895 5895
5893 5892 5892 5891 5891 5890 5890 5890 5891 5891 5891 5891 5891 5892 5892 5892 5892 5892 5893 5893 5893 5893 5893 5893 5893 5894 5893 5894 5894 5895 5895 5895 5895 5895 5895 5895 5895 5895 5894 5894 5894 5894 5894
5894 5893 5893 5892 5891 5891 5891 5891 5891 5891 5892 5892 5892 5892 5892 5892 5892 5892 5892 5893 5893 5893 5893 5893 5893 5893 5893 5894 5895 5895 5895 5895 5895 5895 5895 5894 5894 5894 5894 5893 5893 5893 5893
5895 5894 5894 5893 5892 5892 5892 5891 5891 5892 5892 5892 5892 5892 5892 5892 5892 5892 5892 5892 5893 5893 5893 5893 5893 5893 5893 5894 5894 5894 5894 5895 5895 5894 5894 5894 5894 5893 5893 5893 5893 5892 5892
5896 5895 5894 5893 5893 5893 5892 5892 5892 5892 5893 5893 5893 5893 5893 5892 5892 5892 5892 5892 5892 5893 5893 5893 5893 5893 5893 5893 5894 5894 5894 5894 5894 5894 5893 5894 5893 5893 5892 5892 5892 5892 5891
5898 5896 5894 5893 5892 5893 5893 5893 5893 5893 5893 5893 5893 5893 5893 5893 5893 5893 5892 5892 5892 5892 5892 5893 5893 5893 5893 5893 5894 5893 5894 5894 5893 5893 5893 5893 5893 5892 5891 5891 5891 5891 5891
5899 5897 5895 5893 5892 5893 5894 5894 5894 5894 5894 5894 5894 5894 5893 5893 5893 5893 5892 5892 5892 5892 5892 5892 5893 5893 5893 5893 5893 5893 5893 5893 5893 5893 5892 5892 5892 5891 5890 5890 5890 5890 5890
5900 5898 5896 5895 5894 5895 5895 5895 5895 5895 5895 5894 5894 5894 5894 5893 5893 5893 5892 5892 5892 5892 5892 5892 5892 5892 5892 5892 5893 5893 5893 5892 5892 5891 5891 5891 5891 5890 5890 5889 5889 5889 5888
5901 5900 5899 5897 5897 5897 5896 5896 5896 5896 5895 5894 5894 5894 5894 5893 5893 5893 5892 5892 5892 5892 5892 5892 5892 5892 5892 5892 5892 5891 5891 5891 5891 5890 5890 5890 5889 5889 5888 5888 5888 5887 5887
5903 5902 5901 5900 5899 5898 5898 5897 5897 5896 5896 5895 5895 5894 5894 5893 5893 5892 5892 5892 5891 5891 5891 5891 5891 5891 5890 5890 5890 5890 5890 5890 5889 5889 5889 5888 5888 5888 5887 5887 5886 5886 5885
5905 5904 5903 5902 5901 5900 5899 5898 5898 5897 5897 5896 5895 5894 5894 5893 5892 5892 5892 5891 5891 5891 5891 5890 5890 5889 5889 5889 5889 5889 5889 5889 5888 5888 5887 5887 5886 5886 5886 5885 5885 5884 5883
5906 5905 5904 5903 5902 5901 5901 5900 5899 5899 5898 5897 5896 5895 5894 5893 5892 5892 5891 5891 5890 5890 5890 5889 5889 5888 5887 5887 5887 5887 5887 5887 5887 5886 5885 5885 5884 5884 5884 5883 5883 5882 5881
5908 5907 5906 5905 5904 5903 5902 5901 5900 5900 5899 5898 5897 5895 5894 5893 5892 5891 5891 5890 5889 5889 5888 5888 5888 5887 5886 5885 5885 5885 5885 5885 5884 5884 5884 5883 5883 5882 5882 5881 5880 5880 5879
5910 5908 5907 5906 5905 5904 5904 5903 5902 5901 5900 5898 5897 5896 5895 5893 5892 5891 5890 5889 5888 5888 5887 5886 5886 5885 5884 5884 5884 5883 5883 5883 5882 5882 5882 5881 5880 5880 5879 5878 5878 5876 5876
5911 5910 5909 5908 5907 5906 5905 5904 5903 5901 5900 5899 5898 5897 5895 5893 5892 5890 5889 5888 5887 5886 5886 5885 5884 5884 5883 5882 5882 5882 5881 5881 5880 5880 5879 5879 5878 5877 5876 5875 5874 5873 5873
5912 5911 5910 5909 5908 5907 5906 5905 5903 5902 5901 5899 5898 5896 5895 5893 5891 5890 5888 5887 5886 5885 5884 5883 5883 5882 5881 5881 5880 5880 5879 5879 5878 5877 5876 5875 5874 5874 5873 5872 5871 5870 5869
5913 5912 5911 5910 5909 5908 5906 5905 5904 5903 5901 5900 5898 5896 5894 5893 5891 5889 5887 5886 5884 5883 5883 5882 5881 5880 5880 5879 5878 5877 5877 5876 5875 5875 5874 5872 5871 5870 5869 5868 5867 5866 5866
5914 5913 5912 5911 5910 5908 5907 5906 5904 5903 5902 5900 5898 5896 5894 5892 5890 5888 5886 5884 5883 5882 5881 5880 5879 5878 5878 5877 5876 5875 5874 5873 5872 5871 5870 5869 5868 5867 5866 5864 5863 5862 5861
5915 5914 5912 5911 5910 5909 5907 5906 5904 5903 5902 5900 5898 5896 5894 5891 5889 5887 5885 5883 5881 5880 5879 5878 5877 5876 5875 5874 5873 5872 5871 5870 5869 5868 5867 5865 5864 5863 5862 5860 5859 5858 5857